Flag for Canada Weather past 2 weeks in MD of Lunenburg, Nova Scotia, Canada

Now
56 °F

Cool.


Feels Like: 55 °F
Forecast: 60 / 73 °F
Wind: 6 mph from South

Location: McNabs Island - AUT

Current Time: Jul 30, 2014 at 2:23:06 AM

Latest Report: Jul 30, 2014 at 2:00 AM


Visibility: N/A

Pressure: 30.00 "Hg

Humidity: 100%

Dew point: 56 °F

Location of MD of LunenburgLocation

Historic Weather in MD of Lunenburg — Graph

°F

MD of Lunenburg temperature yesterday

Maximum temperature yesterday: 72 °F (at 1:00 PM)
Minimum temperature yesterday: 58 °F (at 11:00 PM)
Average temperature yesterday: 65 °F

Past Weeks' High & Low Weather Summary

 TemperatureHumidityPressure
High79 °F (Jul 26, 1:00 PM)100% (Jul 16, 7:00 AM)30.28 "Hg (Jul 16, 7:00 AM)
Low55 °F (Jul 17, 6:00 AM)11% (Jul 18, 9:00 AM)29.70 "Hg (Jul 29, 1:00 AM)
Average64 °F83%29.98 "Hg
* Reported Jul 15 1:00 AM — Jul 30 1:00 AM, MD of Lunenburg, Weather by CustomWeather, © 2014

Note: Actual official high and low records may vary slightly from our data, if they occured in-between our weather recording intervals... More about our weather records

Advertising

MD of Lunenburg weather history for previous 24 hours

 ConditionsComfort  
Time TempWeatherWind HumidityBarometerVisibility
1:00 AM
Jul 30
59 °FCool.5 mph97%29.99 "HgN/A
12:00 AM58 °FCool.6 mph97%29.97 "HgN/A
11:00 PM
Jul 29
58 °FCool.7 mph96%29.95 "HgN/A
10:00 PM61 °FCool.8 mph96%29.94 "HgN/A
9:00 PM62 °FMild.6 mph93%29.93 "HgN/A
8:00 PM65 °FMild.9 mph91%29.93 "HgN/A
7:00 PM67 °FMild.10 mph89%29.92 "HgN/A
6:00 PM67 °FMild.15 mph86%29.90 "HgN/A
5:00 PM67 °FMild.15 mph89%29.89 "HgN/A
4:00 PM69 °FMild.15 mph83%29.87 "HgN/A
3:00 PM67 °FMild.17 mph84%29.86 "HgN/A
2:00 PM68 °FMild.16 mph82%29.85 "HgN/A
1:00 PM72 °FMild.20 mph78%29.83 "HgN/A
12:00 PM67 °FMild.15 mph95%29.82 "HgN/A
11:00 AM64 °FMild.13 mphN/A29.81 "HgN/A
10:00 AM59 °FCool.9 mph100%29.81 "HgN/A
9:00 AM62 °FCool.13 mph99%29.80 "HgN/A
8:00 AM64 °FMild.20 mphN/A29.77 "HgN/A
7:00 AM64 °FMild.21 mphN/A29.76 "HgN/A
6:00 AM64 °FMild.24 mphN/A29.74 "HgN/A
5:00 AM64 °FMild.23 mphN/A29.72 "HgN/A
4:00 AM64 °FMild.15 mphN/A29.70 "HgN/A
3:00 AM63 °FMild.15 mphN/A29.71 "HgN/A
2:00 AM64 °FMild.5 mphN/A29.71 "HgN/A
Weather by CustomWeather, © 2014

See weather overviewHow to use our weather pages